Regional Weather Roundup
Issued by NWS

Home | Current Version | Previous Version | Graphics & Text | Print | Product List | Glossary On
Versions: 1 2 3 4 5 6 7 8 9 10 11 12 13 14 15 16 17 18 19 20 21 22 23 24 25 26 27 28 29 30 31 32 33 34 35 36 37 38 39 40 41 42 43 44 45 46 47 48 49 50
000
ASUS43 KFSD 030310
RWRSD

WEATHER ROUNDUP FOR SOUTH DAKOTA
NATIONAL WEATHER SERVICE SIOUX FALLS SD
1000 PM CDT SUN AUG 02 2015

NOTE: "FAIR" INDICATES FEW OR NO CLOUDS BELOW 12,000 FEET WITH NO
SIGNIFICANT WEATHER AND/OR OBSTRUCTIONS TO VISIBILITY.


SDZ001>005-009-010-012>017-030400-
NORTHWEST AND NORTH CENTRAL SOUTH DAKOTA

CITY           SKY/WX    TMP DP  RH WIND       PRES   REMARKS
BUFFALO          N/A     70  51  51 NE9       29.96R
FAITH            N/A     69  48  47 E7        30.00R
MOBRIDGE       CLEAR     70  56  61 NE9       29.93R
$$

SDZ012>016-024>037-041>051-057-063-072>074-030400-
SOUTHWEST AND SOUTH CENTRAL SOUTH DAKOTA

CITY           SKY/WX    TMP DP  RH WIND       PRES   REMARKS
RAPID CTY ARPT CLEAR     70  54  56 NE10      30.01R
PIERRE         CLEAR     69  54  58 N8        29.93R
CUSTER         CLEAR     66  49  54 NE8       30.15R
ELLSWORTH AFB  CLEAR     76  53  44 E7        30.00R
PHILIP         CLEAR     70  56  61 E6        29.96R
PINE RIDGE     CLEAR     71  57  61 E7        29.98R
WINNER         FAIR      76  60  57 SE6       29.95R
$$

SDZ004>011-016>023-039-040-030400-
NORTHEAST SOUTH DAKOTA

CITY           SKY/WX    TMP DP  RH WIND       PRES   REMARKS
ABERDEEN       CLEAR     68  58  70 N3        29.91R
WATERTOWN      CLEAR     65  56  72 N3        29.92R
BROOKINGS      CLEAR     64  55  72 NW5       29.93R
SISSETON         N/A     60  54  80 NW6       29.88R
$$

SDZ017-020-022-023-036>040-048>070-030400-
SOUTHEAST SOUTH DAKOTA

CITY           SKY/WX    TMP DP  RH WIND       PRES   REMARKS
SIOUX FALLS    CLEAR     68  60  75 N8        29.91R
HURON          CLEAR     70  60  70 E3        29.91R
CHAMBERLAIN    CLEAR     72  60  67 E3        29.93R
MITCHELL       CLEAR     69  61  75 N5        29.91R
YANKTON        CLEAR     72  63  73 N12       29.87S
$$

ABBREVIATIONS USED IN REMARKS
   TC - TEMPERATURE IN CELSIUS
  WCI - WIND CHILL INDEX
   HX - HEAT INDEX
  VSB - VISIBILITY




USA.gov is the U.S. government's official web portal to all federal, state and local government web resources and services.